| time (UTC) | temp C | wind direction | speed KPH | gust KPH | rain 1hr cm | rain 24hr cm | rain mn cm | humidity % | barometer mb |
| 20260506201537 | 20 | 219 | 8.0 | 16.1 | 0.00 | 0.00 | 0.00 | 76 | 1007.4 |
| 20260506200040 | 19 | 268 | 9.7 | 20.9 | 0.00 | 0.00 | 0.00 | 77 | 1007.6 |
| 20260506194518 | 19 | 229 | 6.4 | 25.7 | 0.00 | 0.00 | 0.00 | 78 | 1007.8 |
| 20260506193050 | 18 | 294 | 12.9 | 24.1 | 0.00 | 0.00 | 0.00 | 78 | 1008.0 |
| 20260506191533 | 18 | 232 | 11.3 | 32.2 | 0.00 | 0.00 | 0.00 | 80 | 1008.2 |
| 20260506190015 | 18 | 260 | 11.3 | 30.6 | 0.00 | 0.00 | 0.00 | 81 | 1008.2 |
| 20260506184532 | 18 | 217 | 14.5 | 29.0 | 0.00 | 0.00 | 0.00 | 81 | 1008.3 |
| 20260506183114 | 18 | 167 | 14.5 | 30.6 | 0.00 | 0.00 | 0.00 | 81 | 1008.5 |
| 20260506183001 | 18 | 263 | 16.1 | 30.6 | 0.00 | 0.00 | 0.00 | 81 | 1008.6 |
| 20260506181540 | 18 | 243 | 8.0 | 24.1 | 0.00 | 0.00 | 0.00 | 81 | 1008.6 |
| 20260506180022 | 18 | 156 | 16.1 | 30.6 | 0.00 | 0.00 | 0.00 | 81 | 1008.7 |
| 20260506174540 | 18 | 210 | 11.3 | 30.6 | 0.00 | 0.00 | 0.00 | 80 | 1008.7 |
| 20260506173024 | 18 | 228 | 16.1 | 32.2 | 0.00 | 0.00 | 0.00 | 79 | 1008.8 |
| 20260506171554 | 18 | 250 | 9.7 | 32.2 | 0.00 | 0.00 | 0.00 | 79 | 1008.9 |
| 20260506170100 | 18 | 270 | 12.9 | 33.8 | 0.00 | 0.00 | 0.00 | 79 | 1009.2 |
| 20260506170010 | 18 | 225 | 12.9 | 33.8 | 0.00 | 0.00 | 0.00 | 79 | 1009.1 |
| 20260506164536 | 18 | 200 | 12.9 | 27.4 | 0.00 | 0.00 | 0.00 | 79 | 1009.2 |
| 20260506163012 | 18 | 225 | 4.8 | 19.3 | 0.00 | 0.00 | 0.00 | 82 | 1009.4 |
| 20260506161546 | 19 | 237 | 12.9 | 27.4 | 0.00 | 0.00 | 0.00 | 75 | 1009.9 |
| 20260506160020 | 20 | 215 | 14.5 | 27.4 | 0.00 | 0.00 | 0.00 | 71 | 1010.1 |
| 20260506154558 | 20 | 217 | 11.3 | 22.5 | 0.00 | 0.00 | 0.00 | 70 | 1010.2 |
| 20260506153020 | 20 | 175 | 11.3 | 22.5 | 0.00 | 0.00 | 0.00 | 68 | 1010.0 |
| 20260506151559 | 20 | 145 | 8.0 | 35.4 | 0.00 | 0.00 | 0.00 | 68 | 1010.1 |
| 20260506150018 | 20 | 194 | 11.3 | 25.7 | 0.00 | 0.00 | 0.00 | 68 | 1010.1 |
| 20260506144600 | 20 | 243 | 8.0 | 24.1 | 0.00 | 0.00 | 0.00 | 69 | 1010.2 |
| 20260506143032 | 19 | 229 | 11.3 | 27.4 | 0.00 | 0.00 | 0.00 | 69 | 1010.3 |
| 20260506141508 | 20 | 250 | 11.3 | 20.9 | 0.00 | 0.00 | 0.00 | 68 | 1010.4 |
| 20260506140042 | 20 | 174 | 16.1 | 30.6 | 0.00 | 0.00 | 0.00 | 67 | 1010.3 |
| 20260506134558 | 19 | 163 | 12.9 | 27.4 | 0.00 | 0.00 | 0.00 | 68 | 1010.1 |
| 20260506133036 | 19 | 212 | 11.3 | 29.0 | 0.00 | 0.00 | 0.00 | 68 | 1010.1 |
| 20260506131607 | 19 | 194 | 12.9 | 27.4 | 0.00 | 0.00 | 0.00 | 68 | 1010.1 |
| 20260506130026 | 19 | 195 | 12.9 | 29.0 | 0.00 | 0.00 | 0.00 | 68 | 1010.4 |
| 20260506124506 | 19 | 159 | 16.1 | 29.0 | 0.00 | 0.00 | 0.00 | 69 | 1010.5 |
| 20260506123040 | 19 | 190 | 8.0 | 25.7 | 0.00 | 0.00 | 0.00 | 70 | 1010.3 |
| 20260506121559 | 18 | 134 | 12.9 | 35.4 | 0.00 | 0.00 | 0.00 | 71 | 1010.4 |
| 20260506120034 | 18 | 177 | 9.7 | 29.0 | 0.00 | 0.00 | 0.00 | 74 | 1010.4 |
| 20260506114532 | 18 | 255 | 11.3 | 27.4 | 0.00 | 0.00 | 0.00 | 74 | 1010.3 |
| 20260506113042 | 17 | 190 | 9.7 | 29.0 | 0.00 | 0.00 | 0.00 | 75 | 1010.4 |
| 20260506111520 | 17 | 142 | 4.8 | 25.7 | 0.00 | 0.00 | 0.00 | 77 | 1010.4 |
| 20260506110039 | 17 | 205 | 9.7 | 27.4 | 0.00 | 0.00 | 0.00 | 78 | 1010.6 |
| 20260506104513 | 17 | 200 | 6.4 | 22.5 | 0.00 | 0.00 | 0.00 | 78 | 1010.4 |
| 20260506103008 | 16 | 137 | 6.4 | 19.3 | 0.00 | 0.00 | 0.00 | 80 | 1010.4 |
| 20260506101530 | 16 | 160 | 3.2 | 19.3 | 0.00 | 0.00 | 0.00 | 81 | 1010.5 |
| 20260506100013 | 16 | 156 | 4.8 | 16.1 | 0.00 | 0.00 | 0.00 | 81 | 1010.3 |
| 20260506094526 | 16 | 156 | 6.4 | 22.5 | 0.00 | 0.00 | 0.00 | 82 | 1010.1 |
| 20260506093022 | 16 | 226 | 6.4 | 19.3 | 0.00 | 0.00 | 0.00 | 82 | 1010.2 |
| 20260506091557 | 16 | 162 | 8.0 | 27.4 | 0.00 | 0.00 | 0.00 | 82 | 1010.1 |
| 20260506090012 | 16 | 169 | 9.7 | 29.0 | 0.00 | 0.00 | 0.00 | 82 | 1010.3 |
| 20260506084505 | 16 | 219 | 6.4 | 24.1 | 0.00 | 0.00 | 0.00 | 82 | 1010.3 |
| 20260506083028 | 16 | 178 | 8.0 | 19.3 | 0.00 | 0.00 | 0.00 | 82 | 1010.5 |
| 20260506081506 | 16 | 173 | 4.8 | 20.9 | 0.00 | 0.00 | 0.00 | 82 | 1010.6 |
| 20260506073007 | 17 | 173 | 8.0 | 19.3 | 0.00 | 0.00 | 0.00 | 82 | 1010.4 |
| 20260506071506 | 17 | 210 | 8.0 | 22.5 | 0.00 | 0.00 | 0.00 | 81 | 1010.5 |
| 20260506061513 | 17 | 155 | 8.0 | 25.7 | 0.00 | 0.00 | 0.00 | 80 | 1010.8 |
| 20260506044555 | 18 | 229 | 9.7 | 25.7 | 0.00 | 0.00 | 0.00 | 78 | 1011.3 |
| 20260506043019 | 18 | 134 | 9.7 | 24.1 | 0.00 | 0.00 | 0.00 | 78 | 1011.3 |
| 20260506041604 | 18 | 165 | 4.8 | 22.5 | 0.00 | 0.00 | 0.00 | 77 | 1011.4 |
| 20260506040018 | 18 | 198 | 3.2 | 17.7 | 0.00 | 0.00 | 0.00 | 76 | 1011.2 |
| 20260506034551 | 18 | 201 | 8.0 | 20.9 | 0.00 | 0.00 | 0.00 | 75 | 1011.3 |
| 20260506033036 | 18 | 149 | 9.7 | 37.0 | 0.00 | 0.00 | 0.00 | 74 | 1011.3 |
| 20260506031552 | 18 | 173 | 9.7 | 22.5 | 0.00 | 0.00 | 0.00 | 74 | 1011.3 |
| 20260506030038 | 18 | 195 | 4.8 | 16.1 | 0.00 | 0.00 | 0.00 | 73 | 1011.3 |
| 20260506024557 | 18 | 150 | 9.7 | 20.9 | 0.00 | 0.00 | 0.00 | 72 | 1011.5 |
| 20260506023035 | 19 | 211 | 11.3 | 29.0 | 0.00 | 0.00 | 0.00 | 70 | 1011.4 |
| 20260506021556 | 19 | 248 | 11.3 | 25.7 | 0.00 | 0.00 | 0.00 | 69 | 1011.3 |
| 20260506020029 | 19 | 155 | 9.7 | 32.2 | 0.00 | 0.00 | 0.00 | 67 | 1011.3 |
| 20260506014514 | 20 | 169 | 9.7 | 25.7 | 0.00 | 0.00 | 0.00 | 66 | 1011.1 |
| 20260506013044 | 20 | 179 | 12.9 | 25.7 | 0.00 | 0.00 | 0.00 | 65 | 1011.2 |
| 20260506011600 | 20 | 105 | 11.3 | 30.6 | 0.00 | 0.00 | 0.00 | 63 | 1010.8 |
| 20260506011508 | 20 | 197 | 11.3 | 30.6 | 0.00 | 0.00 | 0.00 | 63 | 1010.9 |
| 20260506010050 | 20 | 218 | 8.0 | 35.4 | 0.00 | 0.00 | 0.00 | 63 | 1010.7 |
| 20260506004543 | 20 | 178 | 9.7 | 27.4 | 0.00 | 0.00 | 0.00 | 64 | 1010.7 |
| 20260506003059 | 20 | 142 | 8.0 | 24.1 | 0.00 | 0.00 | 0.00 | 63 | 1010.4 |
| 20260506003000 | 20 | 43 | 8.0 | 24.1 | 0.00 | 0.00 | 0.00 | 63 | 1010.3 |
| 20260506001515 | 21 | 176 | 11.3 | 27.4 | 0.00 | 0.00 | 0.00 | 62 | 1010.3 |
| 20260506000046 | 21 | 243 | 11.3 | 24.1 | 0.00 | 0.00 | 0.00 | 61 | 1010.3 |
| 20260505234535 | 22 | 153 | 8.0 | 25.7 | 0.00 | 0.00 | 0.00 | 57 | 1010.2 |
| 20260505233048 | 22 | 156 | 6.4 | 32.2 | 0.00 | 0.00 | 0.00 | 53 | 1010.0 |
| 20260505231527 | 23 | 181 | 11.3 | 27.4 | 0.00 | 0.00 | 0.00 | 49 | 1009.9 |
| 20260505230053 | 25 | 163 | 9.7 | 24.1 | 0.00 | 0.00 | 0.00 | 46 | 1009.8 |
| 20260505224517 | 25 | 166 | 11.3 | 33.8 | 0.00 | 0.00 | 0.00 | 41 | 1009.6 |
| 20260505223051 | 25 | 225 | 12.9 | 30.6 | 0.00 | 0.00 | 0.00 | 41 | 1009.8 |
| 20260505221531 | 26 | 184 | 6.4 | 27.4 | 0.00 | 0.00 | 0.00 | 41 | 1009.6 |
| 20260505220048 | 26 | 229 | 8.0 | 33.8 | 0.00 | 0.00 | 0.00 | 41 | 1009.5 |
| 20260505214535 | 26 | 224 | 9.7 | 40.2 | 0.00 | 0.00 | 0.00 | 40 | 1009.5 |
| 20260505213050 | 26 | 155 | 12.9 | 30.6 | 0.00 | 0.00 | 0.00 | 39 | 1009.3 |
| 20260505211523 | 27 | 224 | 11.3 | 35.4 | 0.00 | 0.00 | 0.00 | 37 | 1009.3 |
| 20260505210107 | 27 | 175 | 16.1 | 33.8 | 0.00 | 0.00 | 0.00 | 37 | 1009.1 |
| 20260505210002 | 27 | 49 | 14.5 | 33.8 | 0.00 | 0.00 | 0.00 | 37 | 1009.2 |
| 20260505204522 | 27 | 243 | 17.7 | 37.0 | 0.00 | 0.00 | 0.00 | 36 | 1009.0 |
| 20260505203055 | 27 | 181 | 16.1 | 32.2 | 0.00 | 0.00 | 0.00 | 36 | 1009.1 |